Find Starlink 35008

NORAD ID: 65408 Int'l Des: 2025-192 Owner: SPXS Country: US Constellation: starlink operational
LEOCIRCULAR

リアルタイム位置

3D地球を読み込み中...

Starlink 35008について

説明を読み込み中...

次回通過

Passes for default location (London). Set your location on the main map for personalized predictions.

高度履歴

Loading altitude history...

軌道要素

1 65408U 25192E 26104.60960469 .00006332 00000-0 22573-3 0 9991
2 65408 53.1597 65.5132 0001299 90.1749 269.9400 15.30199220 34883
Epoch: Apr 14, 2026 • Age: 5 hours

現在のステータス

高度 480.8 km
速度 7.63 km/s
衛星直下点 53.02°N, 23.65°E
打ち上げ日 Aug 31, 2025
運用期間 0.6 years
タイプ internet

技術仕様

分類 Payload
質量 575.00 kg
乾燥質量 530.00 kg
総質量 575.00 kg
長さ 0.30 m
直径 4.10 m
スパン 29.00 m
形状 Box + pan
製造者 SPXS
バスタイプ Starlink V2MO
フェーズステータス In Orbit
所有者/国 SPXS/US

Most Searched